CZ-4 DEB, 26184

Orbit data source: Space-Track

CZ-4 DEB, 26184 is space debris in SSO originally from a launch on Thu, 14 Oct 1999 UTC launched from the Taiyaun Space Center, China (TSC). Debris objects in space refer to the collection of defunct objects orbiting the Earth. Examples of debris include non-operational satellites, rocket bodies, and fragments generated from explosions, collisions, or faulty payload assembly.

Loading next visibility...
Identifier
26184, 1999-057BW
Orbit
SSO
Country
Flag of CNCN / PRC
Related business
Manufacturer
Unknown
Mission
Spacecraft
Bus & Motor
Unknown
Mass
Unknown
Launch date (UTC)
1999-10-14 (26 years ago)
Launch vehicle
Unknown
Launch site
Taiyaun Space Center, China (TSC)
Object type
Payload
Rocket body
Debris
Shape & HBR
Unknown shape, 0.2 m
Radar Cross Section
Small (<0.1 m²)

Expand to show TLE details & history
Last TLE update: 8 hours ago

TLE from 8 hours ago
0 CZ-4 DEB
1 26184U 99057BW  25349.89136475  .00000496  00000-0  16974-3 0  9996
2 26184  98.7597  36.3271 0105741 123.5712 237.5625 14.37649266347304
Epoch: 2025-12-15T21:23Z
TLE epoch observation values (Epoch: 2025-12-15T21:23:33.914Z)
Latitude
0.00007°
Longitude
-9.34764°
Altitude
810.307 km
Speed
7.427 km/s
True Right ascension
02h 25m 18s
True Declination
0° 00' 00"
Sunlit
Object was in full shadow at epoch
Visualization orbit readout
Latitude
Unknown
Longitude
Unknown
Altitude
Unknown
Speed
Unknown
Apparent Right ascension
Unknown
Apparent Declination
Unknown
Sunlit
N/A
Visualization observer readout
Local Sidereal Time
04:14:43
Azimuth
Unknown
Elevation
Unknown
Doppler factor
Unknown
Orbital elements
Apogee altitude
838.928 km
Perigee altitude
687.897 km
Semi-major axis
7,141.55 km
Eccentricity
0.01057
Inclination
98.7597°
RAAN
36.3271°
Arg. of periapsis
123.5712°
True anomaly
236.54711°
Mean anomaly
237.5625°
Eccentric anomaly
237.05408°
Mean motion
3.59629 °/min
Orbital period
100.1 mins
BSTAR
0.00016974
Loading maneuver chart data...
Computing Atmospheric mass density...
Loading historical data...
Loading historical data...
Loading historical data...
Loading historical data...
Loading historical data...
Loading historical data...
Loading historical data...

Documentation

Showing up to 5 results
|